DELTA 1 DEB, 7203

Orbit data source: Space-Track

DELTA 1 DEB, 7203 is space debris in SSO originally from a launch on Tue, 06 Nov 1973 UTC launched from the Air Force Western Test Range (AFWTR). Debris objects in space refer to the collection of defunct objects orbiting the Earth. Examples of debris include non-operational satellites, rocket bodies, and fragments generated from explosions, collisions, or faulty payload assembly.

Loading next visibility...
Identifier
7203, 1973-086FM
Orbit
SSO
Country
Flag of USUS
Related business
Manufacturer
Unknown
Mission
Spacecraft
Bus & Motor
Unknown
Mass
Unknown
Launch date (UTC)
1973-11-06 (53 years ago)
Launch vehicle
Unknown
Launch site
Air Force Western Test Range (AFWTR)
Object type
Payload
Rocket body
Debris
Shape & HBR
Unknown shape, 0.1 m
Radar Cross Section
Medium (>0.1 m² and <1 m²)

Expand to show TLE details & history
Last TLE update: 1 day ago

TLE from 1 day ago
0 DELTA 1 DEB
1 07203U 73086FM  26208.55323447  .00000245  00000-0  30622-3 0  9994
2 07203 102.0133 248.1606 0444404 126.9340 237.3351 13.40890998565940
Epoch: 2026-07-27T13:16Z
TLE epoch observation values (Epoch: 2026-07-27T13:16:39.458Z)
Latitude
0.00005°
Longitude
103.76102°
Altitude
1,298.304 km
Speed
7.116 km/s
True Right ascension
16h 32m 38s
True Declination
0° 00' 00"
Sunlit
Object was in daylight at epoch
Visualization orbit readout
Latitude
Unknown
Longitude
Unknown
Altitude
Unknown
Speed
Unknown
Apparent Right ascension
Unknown
Apparent Declination
Unknown
Sunlit
N/A
Visualization observer readout
Local Sidereal Time
07:33:49
Azimuth
Unknown
Elevation
Unknown
Doppler factor
Unknown
Orbital elements
Apogee altitude
1,435.882 km
Perigee altitude
770.917 km
Semi-major axis
7,481.537 km
Eccentricity
0.04444
Inclination
102.0133°
RAAN
248.1606°
Arg. of periapsis
126.934°
True anomaly
233.1766°
Mean anomaly
237.3351°
Eccentric anomaly
235.24316°
Mean motion
3.35395 °/min
Orbital period
107.34 mins
BSTAR
0.00030622
Loading maneuver chart data...
Computing Atmospheric mass density...
Loading historical data...
Loading historical data...
Loading historical data...
Loading historical data...
Loading historical data...
Loading historical data...
Loading historical data...

Documentation

Showing up to 5 results
|